GW3542 Weather Reports


Display with metric or nautical units.
time (UTC)temp
F
wind
direction
speed
MPH
gust
MPH
rain 1hr
in
rain 24hr
in
rain mn
in
humidity
%
barometer
mb
20260505140523 72 247 3.0 10.0 0.00 0.00 0.00 54 1016.8
20260505124536 66 287 5.0 10.0 0.00 0.00 0.00 61 1016.9
20260505123520 66 243 2.0 7.0 0.00 0.00 0.00 63 1017.0
20260505122608 65 241 2.0 7.0 0.00 0.00 0.00 64 1017.0
20260505121555 64 252 2.0 7.0 0.00 0.00 0.00 65 1016.9
20260505120541 63 222 4.0 11.0 0.00 0.00 0.00 67 1016.9
20260505115528 62 265 2.0 7.0 0.00 0.00 0.00 68 1016.8
20260505114616 62 265 2.0 6.0 0.00 0.00 0.00 69 1016.8
20260505113604 61 256 2.0 7.0 0.00 0.00 0.00 70 1016.7
20260505112550 60 253 2.0 4.0 0.00 0.00 0.00 71 1016.7
20260505111537 60 211 2.0 7.0 0.00 0.00 0.00 71 1016.7
20260505110526 59 213 1.0 7.0 0.00 0.00 0.00 72 1016.6
20260505101518 59 250 1.0 6.0 0.00 0.00 0.00 73 1016.1
20260505100605 59 226 2.0 6.0 0.00 0.00 0.00 73 1016.0
20260505095552 59 282 1.0 8.0 0.00 0.00 0.00 73 1015.7
20260505094559 59 264 2.0 6.0 0.00 0.00 0.00 73 1015.7
20260505093526 59 269 1.0 4.0 0.00 0.00 0.00 73 1015.6
20260505092614 59 253 1.0 4.0 0.00 0.00 0.00 73 1015.5
20260505091555 59 248 2.0 8.0 0.00 0.00 0.00 73 1015.4
20260505090543 59 254 3.0 7.0 0.00 0.00 0.00 72 1015.4
20260505085529 59 259 2.0 9.0 0.00 0.00 0.00 72 1015.3
20260505084517 59 253 1.0 6.0 0.00 0.00 0.00 72 1015.4
20260505083604 59 274 2.0 7.0 0.00 0.00 0.00 72 1015.4
20260505082551 59 250 1.0 7.0 0.00 0.00 0.00 71 1015.4
20260505081557 60 247 1.0 3.0 0.00 0.00 0.00 70 1015.3
20260505080525 60 248 2.0 6.0 0.00 0.00 0.00 70 1015.2
20260505075615 60 258 1.0 3.0 0.00 0.00 0.00 69 1015.2
20260505074601 61 260 2.0 7.0 0.00 0.00 0.00 68 1015.1
20260505073546 61 264 2.0 7.0 0.00 0.00 0.00 68 1015.0
20260505072528 61 262 2.0 6.0 0.00 0.00 0.00 68 1014.9
20260505071800 61 250 2.0 6.0 0.00 0.00 0.00 67 1014.9
20260505070558 61 263 1.0 4.0 0.00 0.00 0.00 67 1014.9
20260505065547 61 257 2.0 7.0 0.00 0.00 0.00 66 1014.8
20260505064526 61 213 1.0 4.0 0.00 0.00 0.00 66 1015.0
20260505063616 62 283 1.0 4.0 0.00 0.00 0.00 65 1015.0
20260505062601 62 215 2.0 4.0 0.00 0.00 0.00 64 1015.0
20260505061548 62 235 2.0 6.0 0.00 0.00 0.00 64 1015.0
20260505060535 63 253 2.0 7.0 0.00 0.00 0.00 63 1014.9
20260505055519 63 240 3.0 7.0 0.00 0.00 0.00 62 1015.0
20260505054605 63 271 2.0 10.0 0.00 0.00 0.00 62 1015.1
20260505053553 63 229 4.0 9.0 0.00 0.00 0.00 62 1015.1
20260505052539 64 270 3.0 8.0 0.00 0.00 0.00 61 1015.2
20260505051546 64 251 2.0 9.0 0.00 0.00 0.00 61 1015.3
20260505050613 64 236 2.0 8.0 0.00 0.00 0.00 61 1015.3
20260505041605 64 242 3.0 8.0 0.00 0.00 0.00 61 1015.2
20260505040551 65 247 2.0 7.0 0.00 0.00 0.00 61 1015.2
20260505035539 65 222 3.0 10.0 0.00 0.00 0.00 61 1015.0
20260505034526 65 224 4.0 9.0 0.00 0.00 0.00 61 1015.0
20260505033634 65 261 3.0 7.0 0.00 0.00 0.00 60 1014.9
20260505032622 65 256 4.0 9.0 0.00 0.00 0.00 60 1014.9
20260505031623 65 265 4.0 14.0 0.00 0.00 0.00 60 1014.9
20260505030548 65 251 2.0 8.0 0.00 0.00 0.00 60 1014.9
20260505025638 66 249 3.0 9.0 0.00 0.00 0.00 60 1015.0
20260505024605 66 262 4.0 11.0 0.00 0.00 0.00 61 1014.9
20260505023631 66 250 2.0 10.0 0.00 0.00 0.00 62 1014.9
20260505022535 66 253 2.0 10.0 0.00 0.00 0.00 61 1014.8
20260505021616 66 167 3.0 10.0 0.00 0.00 0.00 62 1014.8
20260505020604 66 252 3.0 9.0 0.00 0.00 0.00 62 1015.0
20260505015550 66 108 2.0 7.0 0.00 0.00 0.00 62 1014.7
20260505014537 67 239 2.0 7.0 0.00 0.00 0.00 62 1014.8
20260505013524 67 183 3.0 6.0 0.00 0.00 0.00 62 1014.7
20260505012627 67 197 1.0 3.0 0.00 0.00 0.00 62 1014.6
20260505011603 67 261 2.0 6.0 0.00 0.00 0.00 61 1014.4
20260505010527 67 194 2.0 9.0 0.00 0.00 0.00 60 1014.3
20260505005616 68 168 2.0 6.0 0.00 0.00 0.00 60 1014.1
20260505004603 68 252 2.0 8.0 0.00 0.00 0.00 59 1013.9
20260505003630 68 266 2.0 9.0 0.00 0.00 0.00 59 1013.8
20260505002617 68 237 3.0 11.0 0.00 0.00 0.00 58 1013.6
20260505001525 69 167 3.0 8.0 0.00 0.00 0.00 58 1013.6
20260505000657 69 147 2.0 9.0 0.00 0.00 0.00 57 1013.4
20260504235559 69 206 2.0 6.0 0.00 0.00 0.00 56 1013.3
20260504234543 70 179 2.0 7.0 0.00 0.00 0.00 55 1013.2
20260504233530 71 178 2.0 6.0 0.00 0.00 0.00 54 1013.0
20260504232539 71 127 2.0 7.0 0.00 0.00 0.00 52 1012.9
20260504231558 72 217 3.0 9.0 0.00 0.00 0.00 50 1012.8
20260504230544 73 239 3.0 11.0 0.00 0.00 0.00 48 1012.7
20260504225532 75 268 5.0 14.0 0.00 0.00 0.00 42 1012.7
20260504224519 77 204 4.0 10.0 0.00 0.00 0.00 33 1012.5
20260504223607 78 251 3.0 8.0 0.00 0.00 0.00 33 1012.5
20260504222552 77 226 4.0 9.0 0.00 0.00 0.00 33 1012.5
20260504221539 78 225 4.0 10.0 0.00 0.00 0.00 33 1012.5
20260504220524 78 223 4.0 10.0 0.00 0.00 0.00 33 1012.5
20260504215613 78 228 3.0 13.0 0.00 0.00 0.00 33 1012.5
20260504214620 79 248 2.0 4.0 0.00 0.00 0.00 32 1012.7
20260504213547 79 256 4.0 13.0 0.00 0.00 0.00 32 1012.8
20260504212534 78 269 4.0 10.0 0.00 0.00 0.00 32 1012.7
20260504211523 79 212 5.0 14.0 0.00 0.00 0.00 32 1012.8
20260504210629 79 265 4.0 8.0 0.00 0.00 0.00 32 1012.8
20260504205556 80 294 3.0 11.0 0.00 0.00 0.00 31 1012.8
20260504204543 79 253 4.0 10.0 0.00 0.00 0.00 31 1012.9
20260504203527 80 166 3.0 7.0 0.00 0.00 0.00 33 1012.9
20260504202616 80 268 2.0 13.0 0.00 0.00 0.00 32 1012.9
20260504201602 79 204 4.0 10.0 0.00 0.00 0.00 33 1012.9
20260504200542 79 297 3.0 9.0 0.00 0.00 0.00 31 1012.9
20260504195530 79 297 3.0 9.0 0.00 0.00 0.00 31 1013.1
20260504194537 79 251 3.0 10.0 0.00 0.00 0.00 31 1013.4
20260504193605 78 221 5.0 11.0 0.00 0.00 0.00 31 1013.4
20260504192553 78 279 3.0 10.0 0.00 0.00 0.00 32 1013.5
20260504191540 78 215 3.0 11.0 0.00 0.00 0.00 33 1013.5
20260504190525 79 274 3.0 9.0 0.00 0.00 0.00 33 1013.8
20260504185614 78 223 4.0 8.0 0.00 0.00 0.00 34 1014.0
20260504184557 77 290 4.0 15.0 0.00 0.00 0.00 33 1014.2
20260504183542 77 257 6.0 14.0 0.00 0.00 0.00 34 1014.3
20260504182530 77 220 3.0 14.0 0.00 0.00 0.00 35 1014.4
20260504181517 78 213 2.0 6.0 0.00 0.00 0.00 36 1014.5
20260504180625 77 297 3.0 11.0 0.00 0.00 0.00 35 1014.7
20260504175551 77 293 3.0 10.0 0.00 0.00 0.00 36 1014.6
20260504174536 76 304 4.0 10.0 0.00 0.00 0.00 36 1014.7
20260504173638 75 238 4.0 10.0 0.00 0.00 0.00 37 1014.9
20260504172604 75 286 6.0 14.0 0.00 0.00 0.00 38 1015.1
20260504171552 76 260 4.0 9.0 0.00 0.00 0.00 38 1014.9
20260504170537 75 271 3.0 8.0 0.00 0.00 0.00 38 1015.2
20260504150554 70 260 2.0 10.0 0.00 0.00 0.00 46 1016.4